Time,TemperatureF,DewpointF,PressureIn,WindDirection,WindDirectionDegrees,WindSpeedMPH,WindSpeedGustMPH,Humidity,HourlyPrecipIn,Conditions,Clouds,dailyrainin,SoftwareType,DateUTC
2013-03-23 00:11:00,39.3,27.0,30.00,NNE,16,1.0,5.0,62,0.00,,,0.00,weatherlink.com 1.10,2013-03-23 05:11:00,
2013-03-23 00:26:00,39.3,27.0,30.00,NNE,14,2.0,4.0,61,0.00,,,0.00,weatherlink.com 1.10,2013-03-23 05:26:00,
2013-03-23 00:41:00,39.2,27.0,30.00,North,10,3.0,5.0,61,0.00,,,0.00,weatherlink.com 1.10,2013-03-23 05:41:00,
2013-03-23 00:56:00,39.2,27.0,30.00,NNE,29,3.0,7.0,61,0.00,,,0.00,weatherlink.com 1.10,2013-03-23 05:56:00,
2013-03-23 01:11:00,39.2,27.0,30.00,NNE,25,3.0,5.0,61,0.00,,,0.00,weatherlink.com 1.10,2013-03-23 06:11:00,
2013-03-23 01:26:00,39.1,27.0,29.99,NE,56,1.0,6.0,61,0.00,,,0.00,weatherlink.com 1.10,2013-03-23 06:26:00,
2013-03-23 01:41:00,39.1,27.0,29.98,ENE,74,2.0,6.0,61,0.00,,,0.00,weatherlink.com 1.10,2013-03-23 06:41:00,
2013-03-23 01:56:00,39.1,27.0,29.98,NE,38,2.0,5.0,61,0.00,,,0.00,weatherlink.com 1.10,2013-03-23 06:56:00,
2013-03-23 02:11:00,39.0,26.0,29.98,ENE,65,1.0,5.0,61,0.00,,,0.00,weatherlink.com 1.10,2013-03-23 07:11:00,
2013-03-23 02:26:00,39.0,26.0,29.97,NE,52,1.0,5.0,61,0.00,,,0.00,weatherlink.com 1.10,2013-03-23 07:26:00,
2013-03-23 02:41:00,39.0,27.0,29.97,ENE,61,0.0,4.0,62,0.00,,,0.00,weatherlink.com 1.10,2013-03-23 07:41:00,
2013-03-23 02:56:00,39.0,26.0,29.97,NE,54,3.0,5.0,61,0.00,,,0.00,weatherlink.com 1.10,2013-03-23 07:56:00,
2013-03-23 03:11:00,39.0,26.0,29.97,NNE,31,3.0,4.0,61,0.00,,,0.00,weatherlink.com 1.10,2013-03-23 08:11:00,
2013-03-23 03:26:00,38.9,27.0,29.97,North,10,2.0,4.0,62,0.00,,,0.00,weatherlink.com 1.10,2013-03-23 08:26:00,
2013-03-23 03:41:00,39.0,27.0,29.97,North,10,3.0,4.0,62,0.00,,,0.00,weatherlink.com 1.10,2013-03-23 08:41:00,
2013-03-23 03:56:00,39.0,27.0,29.96,NNE,30,1.0,5.0,62,0.00,,,0.00,weatherlink.com 1.10,2013-03-23 08:56:00,
2013-03-23 04:11:00,38.9,28.0,29.96,North,4,6.0,7.0,64,0.00,,,0.00,weatherlink.com 1.10,2013-03-23 09:11:00,
2013-03-23 04:26:00,38.7,27.0,29.96,North,10,4.0,7.0,64,0.00,,,0.00,weatherlink.com 1.10,2013-03-23 09:26:00,
2013-03-23 05:11:00,38.6,27.0,29.97,NNE,18,1.0,5.0,63,0.00,,,0.00,weatherlink.com 1.10,2013-03-23 10:11:00,
2013-03-23 05:26:00,38.7,27.0,29.97,ENE,57,3.0,5.0,63,0.00,,,0.00,weatherlink.com 1.10,2013-03-23 10:26:00,
2013-03-23 05:41:00,38.7,27.0,29.97,NNE,25,1.0,5.0,63,0.00,,,0.00,weatherlink.com 1.10,2013-03-23 10:41:00,
2013-03-23 05:56:00,38.6,27.0,29.98,NNE,29,2.0,3.0,64,0.00,,,0.00,weatherlink.com 1.10,2013-03-23 10:56:00,
2013-03-23 06:11:00,38.7,27.0,29.99,NE,46,2.0,5.0,64,0.00,,,0.00,weatherlink.com 1.10,2013-03-23 11:11:00,
2013-03-23 06:26:00,38.6,28.0,29.99,NNE,33,1.0,5.0,65,0.00,,,0.00,weatherlink.com 1.10,2013-03-23 11:26:00,
2013-03-23 06:41:00,38.6,27.0,29.99,NE,40,0.0,3.0,64,0.00,,,0.00,weatherlink.com 1.10,2013-03-23 11:41:00,
2013-03-23 06:56:00,38.6,28.0,29.99,NE,37,2.0,4.0,65,0.00,,,0.00,weatherlink.com 1.10,2013-03-23 11:56:00,
2013-03-23 07:26:00,38.6,28.0,30.00,NNE,23,5.0,7.0,65,0.00,,,0.00,weatherlink.com 1.10,2013-03-23 12:26:00,
2013-03-23 07:41:00,38.7,28.0,30.00,NE,49,2.0,7.0,65,0.00,,,0.00,weatherlink.com 1.10,2013-03-23 12:41:00,
2013-03-23 07:56:00,38.8,28.0,30.00,NE,35,8.0,8.0,65,0.00,,,0.00,weatherlink.com 1.10,2013-03-23 12:56:00,
2013-03-23 08:11:00,39.1,28.0,30.01,NE,37,4.0,8.0,64,0.00,,,0.00,weatherlink.com 1.10,2013-03-23 13:11:00,
2013-03-23 08:26:00,39.4,28.0,30.00,North,4,5.0,9.0,63,0.00,,,0.00,weatherlink.com 1.10,2013-03-23 13:26:00,
2013-03-23 08:42:00,39.7,27.0,30.00,NNE,21,6.0,9.0,61,0.00,,,0.00,weatherlink.com 1.10,2013-03-23 13:42:00,
2013-03-23 08:56:00,40.0,27.0,30.00,NE,36,7.0,12.0,59,0.00,,,0.00,weatherlink.com 1.10,2013-03-23 13:56:00,
2013-03-23 09:12:00,40.8,26.0,29.99,NNE,29,3.0,10.0,57,0.00,,,0.00,weatherlink.com 1.10,2013-03-23 14:12:00,
2013-03-23 09:27:00,41.6,26.0,30.00,NE,45,5.0,10.0,54,0.00,,,0.00,weatherlink.com 1.10,2013-03-23 14:27:00,
2013-03-23 09:42:00,42.3,25.0,30.00,East,81,7.0,12.0,50,0.00,,,0.00,weatherlink.com 1.10,2013-03-23 14:42:00,
2013-03-23 09:57:00,42.0,25.0,30.00,NE,38,5.0,12.0,51,0.00,,,0.00,weatherlink.com 1.10,2013-03-23 14:57:00,
2013-03-23 10:12:00,42.7,25.0,30.00,NE,50,6.0,10.0,50,0.00,,,0.00,weatherlink.com 1.10,2013-03-23 15:12:00,
2013-03-23 10:27:00,43.2,25.0,30.00,East,101,8.0,11.0,49,0.00,,,0.00,weatherlink.com 1.10,2013-03-23 15:27:00,
2013-03-23 10:42:00,43.8,25.0,30.00,NE,47,4.0,14.0,48,0.00,,,0.00,weatherlink.com 1.10,2013-03-23 15:42:00,
2013-03-23 10:57:00,44.5,26.0,30.00,NE,41,6.0,12.0,48,0.00,,,0.00,weatherlink.com 1.10,2013-03-23 15:57:00,
2013-03-23 11:12:00,45.1,25.0,30.01,NE,45,3.0,9.0,46,0.00,,,0.00,weatherlink.com 1.10,2013-03-23 16:12:00,
2013-03-23 11:27:00,46.1,26.0,30.00,NE,40,3.0,10.0,46,0.00,,,0.00,weatherlink.com 1.10,2013-03-23 16:27:00,
2013-03-23 11:42:00,46.9,27.0,29.99,East,84,5.0,12.0,46,0.00,,,0.00,weatherlink.com 1.10,2013-03-23 16:42:00,
2013-03-23 11:57:00,47.6,28.0,29.98,NNE,33,5.0,12.0,46,0.00,,,0.00,weatherlink.com 1.10,2013-03-23 16:57:00,
2013-03-23 12:12:00,48.0,28.0,29.98,ESE,104,7.0,12.0,46,0.00,,,0.00,weatherlink.com 1.10,2013-03-23 17:12:00,
2013-03-23 12:27:00,49.1,29.0,29.98,ESE,109,8.0,9.0,47,0.00,,,0.00,weatherlink.com 1.10,2013-03-23 17:27:00,
2013-03-23 12:42:00,49.4,30.0,29.98,NE,46,4.0,12.0,48,0.00,,,0.00,weatherlink.com 1.10,2013-03-23 17:42:00,
2013-03-23 12:57:00,50.1,31.0,29.96,East,96,2.0,10.0,48,0.00,,,0.00,weatherlink.com 1.10,2013-03-23 17:57:00,
2013-03-23 13:12:00,50.9,33.0,29.95,NNE,24,6.0,11.0,50,0.00,,,0.00,weatherlink.com 1.10,2013-03-23 18:12:00,
2013-03-23 13:27:00,51.1,33.0,29.95,NNE,13,8.0,12.0,50,0.00,,,0.00,weatherlink.com 1.10,2013-03-23 18:27:00,
2013-03-23 13:42:00,51.7,33.0,29.93,East,94,5.0,13.0,50,0.00,,,0.00,weatherlink.com 1.10,2013-03-23 18:42:00,
2013-03-23 13:57:00,52.5,34.0,29.92,NNE,12,13.0,15.0,49,0.00,,,0.00,weatherlink.com 1.10,2013-03-23 18:57:00,
2013-03-23 14:12:00,53.2,34.0,29.91,ENE,65,7.0,14.0,48,0.00,,,0.00,weatherlink.com 1.10,2013-03-23 19:12:00,
2013-03-23 14:27:00,53.6,34.0,29.90,ENE,68,9.0,15.0,47,0.00,,,0.00,weatherlink.com 1.10,2013-03-23 19:27:00,
2013-03-23 14:42:00,54.0,33.0,29.90,NE,54,4.0,16.0,46,0.00,,,0.00,weatherlink.com 1.10,2013-03-23 19:42:00,
2013-03-23 14:57:00,54.1,34.0,29.88,ENE,63,7.0,12.0,47,0.00,,,0.00,weatherlink.com 1.10,2013-03-23 19:57:00,
2013-03-23 15:12:00,54.3,34.0,29.88,NE,41,3.0,11.0,47,0.00,,,0.00,weatherlink.com 1.10,2013-03-23 20:12:00,
2013-03-23 15:27:00,54.6,34.0,29.88,ENE,68,5.0,13.0,46,0.00,,,0.00,weatherlink.com 1.10,2013-03-23 20:27:00,
2013-03-23 15:42:00,54.6,34.0,29.86,NNE,16,7.0,12.0,46,0.00,,,0.00,weatherlink.com 1.10,2013-03-23 20:42:00,
2013-03-23 15:58:00,54.6,34.0,29.86,East,82,6.0,13.0,46,0.00,,,0.00,weatherlink.com 1.10,2013-03-23 20:58:00,
2013-03-23 16:13:00,54.9,34.0,29.86,ESE,103,7.0,14.0,45,0.00,,,0.00,weatherlink.com 1.10,2013-03-23 21:13:00,
2013-03-23 16:28:00,54.8,34.0,29.85,ENE,66,8.0,15.0,46,0.00,,,0.00,weatherlink.com 1.10,2013-03-23 21:28:00,
2013-03-23 16:43:00,54.7,35.0,29.84,ENE,72,9.0,14.0,47,0.00,,,0.00,weatherlink.com 1.10,2013-03-23 21:43:00,
2013-03-23 16:58:00,54.5,35.0,29.83,ENE,68,10.0,14.0,48,0.00,,,0.00,weatherlink.com 1.10,2013-03-23 21:58:00,
2013-03-23 17:13:00,54.1,35.0,29.83,ENE,58,8.0,18.0,48,0.00,,,0.00,weatherlink.com 1.10,2013-03-23 22:13:00,
2013-03-23 17:28:00,53.9,34.0,29.82,East,89,13.0,13.0,48,0.00,,,0.00,weatherlink.com 1.10,2013-03-23 22:28:00,
2013-03-23 17:43:00,53.8,35.0,29.81,ENE,73,8.0,14.0,50,0.00,,,0.00,weatherlink.com 1.10,2013-03-23 22:43:00,
2013-03-23 17:58:00,53.8,35.0,29.81,ENE,77,8.0,11.0,50,0.00,,,0.00,weatherlink.com 1.10,2013-03-23 22:58:00,
2013-03-23 18:13:00,53.6,35.0,29.81,NE,49,11.0,12.0,50,0.00,,,0.00,weatherlink.com 1.10,2013-03-23 23:13:00,
2013-03-23 18:28:00,53.4,35.0,29.81,East,88,7.0,11.0,51,0.00,,,0.00,weatherlink.com 1.10,2013-03-23 23:28:00,
2013-03-23 18:43:00,53.3,36.0,29.82,ESE,119,5.0,8.0,52,0.00,,,0.00,weatherlink.com 1.10,2013-03-23 23:43:00,
2013-03-23 18:58:00,53.1,36.0,29.81,East,89,5.0,8.0,52,0.00,,,0.00,weatherlink.com 1.10,2013-03-23 23:58:00,
2013-03-23 19:13:00,52.8,36.0,29.80,ENE,63,3.0,9.0,53,0.00,,,0.00,weatherlink.com 1.10,2013-03-24 00:13:00,
2013-03-23 19:28:00,52.6,36.0,29.79,ENE,68,7.0,7.0,54,0.00,,,0.00,weatherlink.com 1.10,2013-03-24 00:28:00,
2013-03-23 19:43:00,52.4,36.0,29.77,NE,54,4.0,10.0,55,0.00,,,0.00,weatherlink.com 1.10,2013-03-24 00:43:00,
2013-03-23 19:58:00,51.7,38.0,29.77,ENE,75,7.0,12.0,59,0.00,,,0.00,weatherlink.com 1.10,2013-03-24 00:58:00,
2013-03-23 20:13:00,50.9,38.0,29.77,ENE,62,3.0,7.0,62,0.00,,,0.00,weatherlink.com 1.10,2013-03-24 01:13:00,
2013-03-23 20:28:00,50.6,38.0,29.78,East,89,1.0,6.0,63,0.00,,,0.00,weatherlink.com 1.10,2013-03-24 01:28:00,
2013-03-23 20:43:00,50.5,38.0,29.78,ENE,68,1.0,5.0,63,0.00,,,0.00,weatherlink.com 1.10,2013-03-24 01:43:00,
2013-03-23 20:58:00,50.4,39.0,29.78,ENE,68,0.0,3.0,64,0.00,,,0.00,weatherlink.com 1.10,2013-03-24 01:58:00,
2013-03-23 21:13:00,50.3,38.0,29.79,NE,36,0.0,5.0,64,0.00,,,0.00,weatherlink.com 1.10,2013-03-24 02:13:00,
2013-03-23 21:28:00,49.9,40.0,29.78,ESE,112,2.0,4.0,68,0.00,,,0.00,weatherlink.com 1.10,2013-03-24 02:28:00,
2013-03-23 21:43:00,48.6,40.0,29.77,North,4,3.0,7.0,72,0.01,,,0.01,weatherlink.com 1.10,2013-03-24 02:43:00,
2013-03-23 21:58:00,47.9,40.0,29.78,North,354,4.0,6.0,75,0.02,,,0.02,weatherlink.com 1.10,2013-03-24 02:58:00,
2013-03-23 22:13:00,48.0,39.0,29.77,NNE,12,4.0,8.0,72,0.02,,,0.02,weatherlink.com 1.10,2013-03-24 03:13:00,
2013-03-23 22:28:00,47.9,39.0,29.76,NNE,21,8.0,9.0,70,0.02,,,0.02,weatherlink.com 1.10,2013-03-24 03:28:00,
2013-03-23 22:43:00,47.7,39.0,29.78,NE,42,0.0,4.0,72,0.02,,,0.03,weatherlink.com 1.10,2013-03-24 03:43:00,
2013-03-23 23:13:00,46.2,41.0,29.77,NE,41,1.0,2.0,81,0.02,,,0.04,weatherlink.com 1.10,2013-03-24 04:13:00,
2013-03-23 23:28:00,46.0,40.0,29.76,NE,36,1.0,4.0,80,0.02,,,0.04,weatherlink.com 1.10,2013-03-24 04:28:00,
2013-03-23 23:43:00,45.4,41.0,29.77,WNW,295,0.0,3.0,85,0.01,,,0.04,weatherlink.com 1.10,2013-03-24 04:43:00,
2013-03-23 23:58:00,45.5,41.0,29.76,WNW,298,1.0,2.0,83,0.00,,,0.04,weatherlink.com 1.10,2013-03-24 04:58:00,